Terug naar catalogus

STARLINK-36362

ActiefCommunicatieVLEO
NORAD 67424·PAYLOAD·🇺🇸 United States

Gelanceerd Jan 12, 2026 vanaf Cape Canaveral Space Force Station

Loading…

Volgende Passages (komende 24 uur)

TLE

VersSource: CelesTrak SupGP

Epoch: Sep 15, 2026, 03:00 UTC

1 67424C 26005W   26258.12548611 -.00035933  00000+0 -13014-2 0  2580
2 67424  43.0031 248.1861 0001259 270.5963 240.5498 15.27599660    18

Volg STARLINK-36362 in realtime met AllMySat

Download on the App Store